GAOFEN-2

Last updated on Tue Oct 15 2024 00:02:24 GMT+0000 (Coordinated Universal Time)

1 40118U 14049A 24288.56393590 .00002971 00000+0 39361-3 0 9999 2 40118 98.0983 339.5991 0007737 47.3971 312.7892 14.80650647548883
UTC large
Height (km)
Speed (km/s)
/
Latitude / Longitude
Inclination (degrees)
Orbital Period (minutes)
Azimuth
Elevation
Range (km)
Doppler Factor

Next 0 passes for location: London (51.5072 / 0.1276)

Sorry there are no passes over London.